TimeEST,TemperatureF,Dew PointF,Humidity,Sea Level PressureIn,VisibilityMPH,Wind Direction,Wind SpeedMPH,Gust SpeedMPH,PrecipitationIn,Events,Conditions,WindDirDegrees,DateUTC
12:13 AM,32.0,21.2,64,30.28,10.0,NNW,6.9,-,N/A,,Overcast,330,2011-12-17 05:13:00
12:33 AM,32.0,21.2,64,30.28,10.0,NW,9.2,-,N/A,,Overcast,320,2011-12-17 05:33:00
12:53 AM,30.2,19.4,64,30.27,10.0,NW,5.8,-,N/A,,Overcast,310,2011-12-17 05:53:00
1:13 AM,30.2,21.2,69,30.27,10.0,NW,4.6,-,N/A,,Overcast,310,2011-12-17 06:13:00
1:34 AM,30.2,21.2,69,30.27,10.0,WNW,5.8,-,N/A,,Overcast,300,2011-12-17 06:34:00
2:14 AM,30.2,21.2,69,30.26,10.0,WNW,9.2,-,N/A,,Overcast,300,2011-12-17 07:14:00
2:34 AM,30.2,21.2,69,30.26,10.0,NW,6.9,-,N/A,,Overcast,320,2011-12-17 07:34:00
2:54 AM,30.2,21.2,69,30.28,10.0,NW,4.6,-,N/A,,Overcast,320,2011-12-17 07:54:00
3:14 AM,30.2,21.2,69,30.27,10.0,Calm,Calm,-,N/A,,Overcast,0,2011-12-17 08:14:00
3:35 AM,30.2,21.2,69,30.28,10.0,WNW,3.5,-,N/A,,Overcast,300,2011-12-17 08:35:00
3:55 AM,30.2,21.2,69,30.28,10.0,WNW,3.5,-,N/A,,Overcast,300,2011-12-17 08:55:00
4:15 AM,30.2,21.2,69,30.28,10.0,NW,3.5,-,N/A,,Overcast,310,2011-12-17 09:15:00
4:35 AM,30.2,21.2,69,30.28,10.0,NW,4.6,-,N/A,,Overcast,310,2011-12-17 09:35:00
4:55 AM,30.2,21.2,69,30.28,10.0,NW,8.1,-,N/A,,Overcast,320,2011-12-17 09:55:00
5:10 AM,30.2,21.2,69,30.28,10.0,NNW,5.8,-,N/A,,Overcast,330,2011-12-17 10:10:00
5:31 AM,30.2,21.2,69,30.28,10.0,NNW,4.6,-,N/A,,Overcast,330,2011-12-17 10:31:00
5:51 AM,30.2,21.2,69,30.28,10.0,North,6.9,-,N/A,,Overcast,350,2011-12-17 10:51:00
6:11 AM,30.2,21.2,69,30.28,10.0,NNW,4.6,-,N/A,,Overcast,330,2011-12-17 11:11:00
6:31 AM,30.2,21.2,69,30.28,10.0,NNW,4.6,-,N/A,,Overcast,340,2011-12-17 11:31:00
6:51 AM,30.2,21.2,69,30.27,10.0,Calm,Calm,-,N/A,,Overcast,0,2011-12-17 11:51:00
7:12 AM,30.2,21.2,69,30.27,10.0,North,3.5,-,N/A,,Overcast,360,2011-12-17 12:12:00
8:12 AM,30.2,21.2,69,30.28,10.0,Calm,Calm,-,N/A,,Overcast,0,2011-12-17 13:12:00
8:32 AM,30.2,21.2,69,30.28,10.0,Calm,Calm,-,N/A,,Overcast,0,2011-12-17 13:32:00
8:52 AM,28.4,24.8,86,30.27,2.0,North,4.6,-,N/A,Snow,Light Snow,350,2011-12-17 13:52:00
9:12 AM,28.4,24.8,86,30.27,2.5,Calm,Calm,-,N/A,Snow,Light Snow,0,2011-12-17 14:12:00
9:32 AM,28.4,26.6,93,30.27,3.0,Calm,Calm,-,N/A,Snow,Light Snow,0,2011-12-17 14:32:00
9:52 AM,28.4,26.6,93,30.28,3.0,Calm,Calm,-,N/A,Snow,Light Snow,0,2011-12-17 14:52:00
10:13 AM,28.4,26.6,93,30.28,2.5,Calm,Calm,-,N/A,Snow,Light Snow,0,2011-12-17 15:13:00
10:33 AM,28.4,26.6,93,30.28,3.0,Calm,Calm,-,N/A,Snow,Light Snow,0,2011-12-17 15:33:00
10:53 AM,28.4,26.6,93,30.28,2.0,Calm,Calm,-,N/A,Snow,Light Snow,0,2011-12-17 15:53:00
11:13 AM,28.4,28.4,100,30.28,1.5,Calm,Calm,-,N/A,Snow,Light Snow,0,2011-12-17 16:13:00
11:33 AM,28.4,28.4,100,30.27,1.5,Calm,Calm,-,N/A,Snow,Light Snow,0,2011-12-17 16:33:00
11:53 AM,28.4,28.4,100,30.26,1.8,Calm,Calm,-,N/A,Snow,Light Snow,0,2011-12-17 16:53:00
12:14 PM,28.4,28.4,100,30.25,2.0,Calm,Calm,-,N/A,Snow,Light Snow,0,2011-12-17 17:14:00
12:34 PM,30.2,26.6,86,30.24,3.0,Calm,Calm,-,N/A,Snow,Light Snow,0,2011-12-17 17:34:00
12:54 PM,30.2,26.6,86,30.24,3.0,Calm,Calm,-,N/A,Snow,Light Snow,0,2011-12-17 17:54:00
1:14 PM,30.2,28.4,93,30.23,3.0,Calm,Calm,-,N/A,Snow,Light Snow,0,2011-12-17 18:14:00
1:34 PM,30.2,26.6,86,30.22,5.0,SW,4.6,-,N/A,Snow,Light Snow,230,2011-12-17 18:34:00
1:54 PM,30.2,26.6,86,30.22,3.0,SSW,3.5,-,N/A,Snow,Light Snow,200,2011-12-17 18:54:00
2:15 PM,30.2,28.4,93,30.22,4.0,SW,3.5,-,N/A,Snow,Light Snow,220,2011-12-17 19:15:00
2:35 PM,30.2,28.4,93,30.22,3.0,SW,3.5,-,N/A,Snow,Light Snow,220,2011-12-17 19:35:00
2:55 PM,30.2,28.4,93,30.22,2.0,WSW,3.5,-,N/A,Snow,Light Snow,240,2011-12-17 19:55:00
3:15 PM,30.2,28.4,93,30.21,3.0,Calm,Calm,-,N/A,Snow,Light Snow,0,2011-12-17 20:15:00
3:35 PM,30.2,28.4,93,30.21,1.0,Calm,Calm,-,N/A,Snow,Light Snow,0,2011-12-17 20:35:00
3:55 PM,30.2,30.2,100,30.21,1.5,Calm,Calm,-,N/A,Snow,Light Snow,0,2011-12-17 20:55:00
4:10 PM,30.2,30.2,100,30.21,1.8,Calm,Calm,-,N/A,Snow,Light Snow,0,2011-12-17 21:10:00
4:31 PM,30.2,30.2,100,30.21,2.0,Calm,Calm,-,N/A,Snow,Light Snow,0,2011-12-17 21:31:00
4:51 PM,30.2,30.2,100,30.20,3.0,Calm,Calm,-,N/A,Snow,Light Snow,0,2011-12-17 21:51:00
5:31 PM,30.2,30.2,100,30.19,5.0,Calm,Calm,-,N/A,Snow,Light Snow,0,2011-12-17 22:31:00
5:51 PM,30.2,30.2,100,30.19,7.0,Calm,Calm,-,N/A,,Overcast,0,2011-12-17 22:51:00
6:11 PM,30.2,30.2,100,30.19,7.0,Calm,Calm,-,N/A,Snow,Light Snow,0,2011-12-17 23:11:00
6:31 PM,30.2,30.2,100,30.19,7.0,Calm,Calm,-,N/A,Snow,Light Snow,0,2011-12-17 23:31:00
6:52 PM,30.2,30.2,100,30.19,10.0,Calm,Calm,-,N/A,,Overcast,0,2011-12-17 23:52:00
7:12 PM,30.2,30.2,100,30.19,7.0,Calm,Calm,-,N/A,Snow,Light Snow,0,2011-12-18 00:12:00
7:32 PM,30.2,30.2,100,30.19,7.0,Calm,Calm,-,N/A,Snow,Light Snow,0,2011-12-18 00:32:00
7:52 PM,30.2,30.2,100,30.18,7.0,South,3.5,-,N/A,Snow,Light Snow,190,2011-12-18 00:52:00
8:12 PM,32.0,32.0,100,30.19,7.0,SSW,4.6,-,N/A,,Overcast,210,2011-12-18 01:12:00
8:32 PM,32.0,32.0,100,30.18,7.0,SSW,5.8,-,N/A,,Overcast,200,2011-12-18 01:32:00
8:52 PM,32.0,32.0,100,30.19,7.0,WSW,6.9,-,N/A,,Overcast,240,2011-12-18 01:52:00
9:12 PM,32.0,32.0,100,30.19,7.0,WSW,6.9,-,N/A,Snow,Light Snow,240,2011-12-18 02:12:00
9:33 PM,32.0,32.0,100,30.18,5.0,WSW,8.1,-,N/A,Snow,Light Snow,240,2011-12-18 02:33:00
9:53 PM,30.2,30.2,100,30.17,4.0,SW,6.9,-,N/A,Snow,Light Snow,230,2011-12-18 02:53:00
10:13 PM,30.2,30.2,100,30.16,7.0,SW,6.9,-,N/A,Snow,Light Snow,230,2011-12-18 03:13:00
10:33 PM,30.2,30.2,100,30.16,7.0,WSW,8.1,-,N/A,Snow,Light Snow,240,2011-12-18 03:33:00
10:53 PM,30.2,30.2,100,30.16,10.0,WSW,4.6,-,N/A,,Overcast,240,2011-12-18 03:53:00
11:13 PM,30.2,30.2,100,30.16,10.0,WSW,6.9,-,N/A,,Overcast,240,2011-12-18 04:13:00
11:33 PM,30.2,30.2,100,30.15,10.0,WSW,6.9,-,N/A,,Overcast,240,2011-12-18 04:33:00
11:53 PM,30.2,30.2,100,30.16,10.0,WSW,4.6,-,N/A,,Overcast,240,2011-12-18 04:53:00